This is the latest recevied weather packets stored in our database for station/object K4IR. If no packets are shown the sender has not sent any weather packets the latest 10 day(s).
| Time | Temp. | Humidity | Pressure | Rain* | Wind** | Luminosity | Snow |
|---|---|---|---|---|---|---|---|
| 1787531500 | 25.56° C | 97% | 1014.2 hPa | 0 mm | - | 0 W/m² | - |
| 1787530896 | 25.56° C | 97% | 1013.6 hPa | 0 mm | - | 0 W/m² | - |
| 1787530291 | 26.11° C | 96% | 1013.8 hPa | 0 mm | - | 0 W/m² | - |
| 1787529689 | 26.11° C | 96% | 1013.4 hPa | 0 mm | - | 0 W/m² | - |
| 1787529089 | 26.11° C | 95% | 1013.5 hPa | 0 mm | - | 2 W/m² | - |
| 1787528486 | 26.67° C | 95% | 1013.4 hPa | 0 mm | - | 6 W/m² | - |
| 1787527884 | 26.67° C | 94% | 1013.4 hPa | 0 mm | - | 13 W/m² | - |
| 1787527281 | 26.67° C | 93% | 1013.4 hPa | 0 mm | - | 20 W/m² | - |
| 1787526678 | 27.22° C | 92% | 1013.5 hPa | 0 mm | - | 29 W/m² | - |
| 1787526076 | 27.22° C | 92% | 1013.5 hPa | 0 mm | - | 41 W/m² | - |
| 1787525472 | 27.78° C | 92% | 1013.4 hPa | 0 mm | - | 56 W/m² | - |
| 1787524868 | 27.78° C | 91% | 1013.6 hPa | 0 mm | - | 59 W/m² | - |
| 1787524264 | 28.33° C | 91% | 1013.4 hPa | 0 mm | - | 80 W/m² | - |
| 1787523661 | 27.78° C | 91% | 1013.6 hPa | 0 mm | - | 120 W/m² | - |
| 1787523056 | 27.78° C | 91% | 1013.5 hPa | 0 mm | - | 86 W/m² | - |
| 1787522453 | 27.78° C | 93% | 1013.4 hPa | 0 mm | - | 137 W/m² | - |
| 1787521848 | 27.78° C | 97% | 1013.6 hPa | 0 mm | - | 242 W/m² | - |
| 1787521248 | 27.22° C | 97% | 1013.4 hPa | 0 mm | - | 220 W/m² | - |
| 1787520645 | 26.67° C | 97% | 1013.5 hPa | 0 mm | - | 62 W/m² | - |
| 1787520042 | 26.67° C | 97% | 1013.2 hPa | 0 mm | - | 60 W/m² | - |
| 1787519438 | 26.67° C | 97% | 1013.1 hPa | 0 mm | - | 68 W/m² | - |
| 1787518833 | 26.67° C | 97% | 1013.4 hPa | 0 mm | - | 75 W/m² | - |
| 1787518229 | 26.67° C | 97% | 1013.1 hPa | 0 mm | - | 72 W/m² | - |
| 1787517626 | 26.67° C | 97% | 1013.3 hPa | 0 mm | - | 101 W/m² | - |
| 1787517023 | 26.67° C | 97% | 1013.3 hPa | 0 mm | - | 86 W/m² | - |
* Rain latest hour (hover to see other rain measurements)
** Current wind speed in m/s (hover to see current wind gust speed)